Starlink 30785

operational
NORAD ID: 58191 Int'l Des: 2023-167 Owner: SPXS Country: US Constellation: starlink
LEOCIRCULAR

关于 Starlink 30785

正在加载描述...

实时位置

正在加载3D地球...

即将过境

高度历史

Altitude vs Time

uPlot chart will show altitude changes over time

两行轨道根数

1 58191U 23167S 25303.52124512 -.00000349 00000-0 -10797-4 0 9994
2 58191 43.0016 133.3076 0001173 270.3880 89.6828 15.02536499111371
Epoch: Oct 30, 2025 • Age: 31 hours

当前状态

高度 563.1 km
速度 7.59 km/s
星下点 43.16°N, 112.41°W
发射日期 Oct 30, 2023
运行时间 2 years
类型 internet

技术详情

分类 Payload
质量 730.00 kg
干质量 700.00 kg
总质量 730.00 kg
长度 0.30 m
直径 4.10 m
跨度 29.00 m
形状 Box + pan
制造商 SPXS
平台类型 Starlink V2M
阶段状态 In Orbit
所有者/国家 SPXS/US

大型星座

Loading constellations...